Location: Glencliff
(36.1226°N, 86.7183°W)
Time: 02:46:37
(UTC+00:00)

ADEOS Rocket - Pass Details

Date: 25 August 2019
Orbit: 859 x 1307 km, 98.7° (Epoch: 16 September)

Event Time Altitude Azimuth Distance (km) Brightness Sun altitude
Rises 02:43:33 0° 4° (N) 3,661 6.5 -25.8°
Reaches altitude 10° 02:46:01 10° 357° (N) 2,767 5.9 -26.2°
Maximum altitude 02:51:49 42° 289° (WNW) 1,481 4.3 -27.1°
Drops below altitude 10° 02:58:13 10° 222° (SW) 3,044 5.6 -28.1°
Sets 03:01:04 0° 215° (SW) 4,066 6.2 -28.6°
